Zurück zum Katalog

POQUITO

AktivWissenschaftSSO
NORAD 62691·PAYLOAD·🇱🇺 Luxembourg
Dieser Satellitenname wurde noch nicht durch offizielle Quellen bestätigt.

Gestartet Jan 14, 2025 von Vandenberg Space Force Base

Loading…

Nächste Überflüge (nächste 24 Stunden)

TLE

AktuellSource: Space-Track

Epoche: Sep 13, 2026, 18:49 UTC

1 62691U 25009CL  26256.78433350  .00044262  00000-0  70816-3 0  9997
2 62691  97.3734 343.8988 0000939 253.6254 106.4896 15.53015975 92916

Verfolge POQUITO in Echtzeit mit AllMySat

Download on the App Store